Location: Cartignies
(50.0929°N, 3.8447°E)
Time: 15:10:26
(UTC+00:00)

USA 238 DEB - Pass Details

Date: 12 January 2026
Orbit: 883 x 1328 km, 63.4° (Epoch: 10 January)

Event Time Altitude Azimuth Distance (km) Brightness Sun altitude
Rises 18:37:10 0° 316° (NW) 3,952 7.2 -23.3°
Reaches altitude 10° 18:39:46 10° 313° (NW) 3,051 6.6 -23.7°
Maximum altitude 18:47:03 64° 235° (SW) 1,353 4.3 -24.9°
Drops below altitude 10° 18:54:58 10° 156° (SSE) 3,305 6.0 -26.2°
Enters shadow 18:56:31 - 155° (SSE) 3,832 6.4 -26.4°
